Stündliche Wetter Cegielnia

Heute, 31 Oktober, Samstag

Zeit Temperatur Niederschläge Wind Luftdruck Luftfeuchtigkeit
00:00 +6°C° 0 mm 2 m/S 754 mmHg 94%
01:00 +6°C° 0 mm 2 m/S 754 mmHg 95%
02:00 +6°C° 0 mm 2 m/S 754 mmHg 96%
03:00 +6°C° 0 mm 2 m/S 754 mmHg 96%
04:00 +6°C° 0 mm 2 m/S 755 mmHg 96%
05:00 +6°C° 0 mm 2 m/S 755 mmHg 96%
06:00 +5°C° 0 mm 2 m/S 755 mmHg 97%
07:00 +5°C° 0 mm 2 m/S 756 mmHg 98%
08:00 +6°C° 0 mm 2 m/S 757 mmHg 94%
09:00 +7°C° 0 mm 2 m/S 757 mmHg 90%
10:00 +8°C° 0 mm 2 m/S 757 mmHg 87%
11:00 +9°C° 0 mm 2 m/S 758 mmHg 84%
12:00 +10°C° 0 mm 1 m/S 758 mmHg 81%
13:00 +11°C° 0 mm 1 m/S 758 mmHg 79%
14:00 +10°C° 0 mm 1 m/S 758 mmHg 82%
15:00 +9°C° 0 mm 1 m/S 758 mmHg 85%
16:00 +9°C° 0 mm 1 m/S 758 mmHg 89%
17:00 +8°C° 0 mm 1 m/S 758 mmHg 90%
18:00 +8°C° 0 mm 1 m/S 758 mmHg 91%
19:00 +7°C° 0 mm 1 m/S 758 mmHg 92%
20:00 +7°C° 0 mm 1 m/S 758 mmHg 92%
21:00 +7°C° 0 mm 1 m/S 758 mmHg 92%
22:00 +7°C° 0 mm 1 m/S 758 mmHg 92%
23:00 +6°C° 0 mm 1 m/S 758 mmHg 92%

Morgen, 1 November, Sonntag

Zeit Temperatur Niederschläge Wind Luftdruck Luftfeuchtigkeit
00:00 +5°C° 0 mm 2 m/S 758 mmHg 93%
01:00 +5°C° 0 mm 2 m/S 758 mmHg 93%
02:00 +5°C° 0 mm 2 m/S 758 mmHg 93%
03:00 +5°C° 0 mm 2 m/S 758 mmHg 94%
04:00 +4°C° 0 mm 2 m/S 757 mmHg 94%
05:00 +4°C° 0 mm 2 m/S 757 mmHg 94%
06:00 +4°C° 0 mm 2 m/S 757 mmHg 94%
07:00 +3°C° 0 mm 3 m/S 757 mmHg 94%
08:00 +4°C° 0 mm 3 m/S 757 mmHg 89%
09:00 +7°C° 0 mm 3 m/S 757 mmHg 84%
10:00 +7°C° 0 mm 4 m/S 756 mmHg 78%
11:00 +8°C° 0 mm 4 m/S 756 mmHg 75%
12:00 +10°C° 0 mm 4 m/S 755 mmHg 72%
13:00 +10°C° 0 mm 4 m/S 755 mmHg 69%
14:00 +8°C° 0 mm 4 m/S 754 mmHg 73%
15:00 +7°C° 0 mm 4 m/S 753 mmHg 76%
16:00 +7°C° 0 mm 4 m/S 753 mmHg 80%
17:00 +6°C° 0 mm 4 m/S 753 mmHg 80%
18:00 +6°C° 0 mm 5 m/S 752 mmHg 81%
19:00 +6°C° 0 mm 5 m/S 752 mmHg 81%
20:00 +6°C° 0 mm 5 m/S 751 mmHg 81%
21:00 +6°C° 0 mm 5 m/S 751 mmHg 81%
22:00 +6°C° 0 mm 5 m/S 750 mmHg 82%
23:00 +6°C° 0.3 mm 5 m/S 750 mmHg 84%

übermorgen, 2 November, Montag

Zeit Temperatur Niederschläge Wind Luftdruck Luftfeuchtigkeit
00:00 +6°C° 0.3 mm 5 m/S 750 mmHg 86%
01:00 +6°C° 0.3 mm 5 m/S 750 mmHg 88%
02:00 +6°C° 0.4 mm 5 m/S 749 mmHg 89%
03:00 +6°C° 0.4 mm 5 m/S 749 mmHg 91%
04:00 +6°C° 0.4 mm 4 m/S 749 mmHg 93%
05:00 +7°C° 0 mm 4 m/S 749 mmHg 93%
06:00 +7°C° 0 mm 4 m/S 749 mmHg 93%
07:00 +7°C° 0 mm 4 m/S 749 mmHg 94%
08:00 +8°C° 0.1 mm 4 m/S 749 mmHg 94%
09:00 +8°C° 0.1 mm 4 m/S 749 mmHg 94%
10:00 +10°C° 0.1 mm 4 m/S 750 mmHg 95%
11:00 +10°C° 0 mm 3 m/S 750 mmHg 94%
12:00 +11°C° 0 mm 3 m/S 750 mmHg 93%
13:00 +12°C° 0 mm 3 m/S 750 mmHg 92%
14:00 +12°C° 0 mm 2 m/S 750 mmHg 93%
15:00 +12°C° 0 mm 2 m/S 750 mmHg 93%
16:00 +12°C° 0 mm 2 m/S 751 mmHg 94%
17:00 +12°C° 0 mm 2 m/S 751 mmHg 94%
18:00 +10°C° 0 mm 2 m/S 751 mmHg 93%
19:00 +10°C° 0 mm 3 m/S 751 mmHg 93%
20:00 +10°C° 0 mm 3 m/S 751 mmHg 93%
21:00 +10°C° 0 mm 3 m/S 751 mmHg 93%
22:00 +10°C° 0 mm 3 m/S 751 mmHg 93%
23:00 +11°C° 0 mm 4 m/S 751 mmHg 94%

3 November, Dienstag

Zeit Temperatur Niederschläge Wind Luftdruck Luftfeuchtigkeit
00:00 +11°C° 0 mm 4 m/S 751 mmHg 95%
01:00 +12°C° 0 mm 4 m/S 751 mmHg 96%
02:00 +12°C° 0.2 mm 4 m/S 751 mmHg 96%
03:00 +12°C° 0.2 mm 4 m/S 751 mmHg 97%
04:00 +12°C° 0.2 mm 3 m/S 751 mmHg 97%
05:00 +12°C° 0 mm 3 m/S 752 mmHg 97%
06:00 +12°C° 0 mm 3 m/S 752 mmHg 97%
07:00 +12°C° 0 mm 3 m/S 752 mmHg 96%
08:00 +13°C° 0.1 mm 3 m/S 752 mmHg 95%
09:00 +13°C° 0.1 mm 3 m/S 753 mmHg 94%
10:00 +14°C° 0.1 mm 3 m/S 753 mmHg 93%
11:00 +13°C° 0.2 mm 3 m/S 754 mmHg 91%
12:00 +13°C° 0.2 mm 3 m/S 754 mmHg 88%
13:00 +12°C° 0.2 mm 3 m/S 754 mmHg 86%
14:00 +13°C° 0 mm 2 m/S 755 mmHg 85%
15:00 +12°C° 0 mm 2 m/S 755 mmHg 84%
16:00 +12°C° 0 mm 2 m/S 756 mmHg 84%
17:00 +10°C° 0 mm 2 m/S 756 mmHg 83%
18:00 +9°C° 0 mm 2 m/S 757 mmHg 83%
19:00 +8°C° 0 mm 2 m/S 757 mmHg 82%
20:00 +8°C° 0 mm 2 m/S 758 mmHg 82%
21:00 +7°C° 0 mm 2 m/S 758 mmHg 83%
22:00 +7°C° 0 mm 2 m/S 758 mmHg 83%
23:00 +7°C° 0 mm 2 m/S 758 mmHg 84%

4 November, Mittwoch

Zeit Temperatur Niederschläge Wind Luftdruck Luftfeuchtigkeit
00:00 +5°C° 0 mm 3 m/S 759 mmHg 85%
01:00 +5°C° 0 mm 3 m/S 759 mmHg 86%
02:00 +5°C° 0 mm 3 m/S 759 mmHg 86%
03:00 +5°C° 0 mm 3 m/S 759 mmHg 85%
04:00 +5°C° 0 mm 3 m/S 759 mmHg 84%
05:00 +5°C° 0 mm 3 m/S 759 mmHg 85%
06:00 +4°C° 0 mm 3 m/S 760 mmHg 85%
07:00 +4°C° 0 mm 3 m/S 760 mmHg 86%
08:00 +5°C° 0 mm 3 m/S 760 mmHg 81%
09:00 +6°C° 0 mm 4 m/S 760 mmHg 76%
10:00 +8°C° 0 mm 4 m/S 761 mmHg 71%
11:00 +8°C° 0 mm 4 m/S 761 mmHg 68%
12:00 +8°C° 0 mm 4 m/S 761 mmHg 65%
13:00 +10°C° 0 mm 4 m/S 761 mmHg 62%
14:00 +8°C° 0 mm 4 m/S 761 mmHg 67%
15:00 +8°C° 0 mm 3 m/S 761 mmHg 72%
16:00 +7°C° 0 mm 2 m/S 761 mmHg 77%
17:00 +6°C° 0 mm 2 m/S 762 mmHg 79%
18:00 +6°C° 0 mm 2 m/S 762 mmHg 82%
19:00 +5°C° 0 mm 2 m/S 763 mmHg 84%
20:00 +5°C° 0 mm 2 m/S 763 mmHg 85%
21:00 +5°C° 0 mm 2 m/S 763 mmHg 86%
22:00 +4°C° 0 mm 2 m/S 763 mmHg 87%
23:00 +4°C° 0 mm 2 m/S 763 mmHg 87%

5 November, Donnerstag

Zeit Temperatur Niederschläge Wind Luftdruck Luftfeuchtigkeit
00:00 +4°C° 0 mm 2 m/S 764 mmHg 88%
01:00 +4°C° 0 mm 2 m/S 764 mmHg 88%
02:00 +3°C° 0 mm 2 m/S 764 mmHg 90%
03:00 +2°C° 0 mm 3 m/S 764 mmHg 91%
04:00 +2°C° 0 mm 3 m/S 764 mmHg 93%
05:00 +2°C° 0 mm 3 m/S 764 mmHg 94%
06:00 +2°C° 0 mm 3 m/S 765 mmHg 95%
07:00 +2°C° 0 mm 3 m/S 765 mmHg 96%
08:00 +3°C° 0 mm 3 m/S 765 mmHg 92%
09:00 +4°C° 0 mm 3 m/S 765 mmHg 89%
10:00 +7°C° 0 mm 3 m/S 765 mmHg 85%
11:00 +6°C° 0 mm 4 m/S 765 mmHg 81%
12:00 +7°C° 0 mm 4 m/S 765 mmHg 77%
13:00 +8°C° 0 mm 4 m/S 765 mmHg 73%
14:00 +7°C° 0 mm 4 m/S 765 mmHg 77%
15:00 +8°C° 0 mm 3 m/S 765 mmHg 81%
16:00 +7°C° 0 mm 3 m/S 765 mmHg 86%
17:00 +5°C° 0 mm 3 m/S 765 mmHg 86%
18:00 +5°C° 0 mm 3 m/S 765 mmHg 87%
19:00 +5°C° 0 mm 3 m/S 765 mmHg 88%
20:00 +4°C° 0 mm 4 m/S 765 mmHg 89%
21:00 +4°C° 0 mm 4 m/S 765 mmHg 90%
22:00 +4°C° 0 mm 4 m/S 765 mmHg 91%
23:00 +4°C° 0 mm 4 m/S 765 mmHg 92%
Mehr zeigen